Find Starlink 30845

NORAD ID: 58207 Int'l Des: 2023-170 Owner: SPXS Country: US Constellation: starlink operational
LEOCIRCULAR

現在のビュー

3D地球を読み込み中...

About Starlink 30845

Starlink 30845 (NORAD 58207) is a starlink constellation satellite (v2 mini) launched Nov 4, 2023 by SPXS of US. It operates in LEO, CIRCULAR orbit with a mass of 730.00 kg.

Starlink 30845について

説明を読み込み中...

次回通過

Passes for default location (London). Set your location on the main map for personalized predictions.

高度履歴

Loading altitude history...

軌道要素

1 58207U 23170B 26168.93962729 .00017000 00000-0 11290-2 0 9998
2 58207 43.0013 9.1577 0003073 269.0716 90.9776 15.06954387145385
Epoch: Jun 17, 2026 • Age: 11 hours

現在のステータス

高度 555.0 km
速度 7.59 km/s
衛星直下点 -38.48°S, 159.62°W
打ち上げ日 Nov 4, 2023
運用期間 2.6 years
タイプ internet

技術仕様

分類 Payload
質量 730.00 kg
乾燥質量 700.00 kg
総質量 730.00 kg
長さ 0.30 m
直径 4.10 m
スパン 29.00 m
形状 Box + pan
製造者 SPXS
バスタイプ Starlink V2M
フェーズステータス In Orbit
所有者/国 SPXS/US

Most Searched